Location: Moena
(46.3667°N, 11.6500°E)
Time: 18:38:18
(UTC+00:00)

Resurs 01 Rocket - Pass Details

Date: 03 March 2021
Orbit: 635 x 643 km, 98.0° (Epoch: 14 April)

Event Time Altitude Azimuth Distance (km) Brightness Sun altitude
Exits shadow 20:50:15 15° 309° (NW) 1,717 4.4 -38.1°
Drops below altitude 10° 20:51:19 10° 320° (NW) 2,032 4.9 -38.2°
Sets 20:53:55 0° 335° (NNW) 2,947 5.8 -38.6°
